Sheridan, WY (82801)

6:34 PM MDT on August 28, 2015 (GMT -0600)
North Airport Area | | Change Station
CLOSE
Current Station
Personal Weather Station
Location: Sheridan, WY
Elevation: 3917 ft
Nearby Weather Stations

Elev 3917 ft 44.78 °N, 106.97 °W | Updated 5 minutes ago

Haze
Haze
86.4 °F
Feels Like 84 °F
N
0.0
Wind Variable Wind from NNE

Today
High -- | Low -- °F
--% Chance of Precip.
Yesterday
High -- | Low -- °F
Precip. -- in
6:25 AM 7:52 PM
Waxing Gibbous, 99% visible
Pressure 29.95 in
Visibility 5.0 miles
Clouds Clear
Heat Index 84 °F
Dew Point 51 °F
Humidity 30%
Rainfall 0.00 in
Snow Depth Not available.
UV 2 out of 12
Pollen 9.00 out of 12
Air Quality Not available.
Flu Activity Not available.
METAR KSHR 282353Z AUTO 32004KT 5SM HZ CLR 31/06 A3006 RMK AO2 SLP142 T03110056 10328 20294 55004
Pressure 29.95 in
Visibility 5.0 miles
Clouds Clear
Heat Index 84 °F
Dew Point 51 °F
Humidity 30%
Rainfall 0.00 in
Snow Depth Not available.
UV 2 out of 12
Pollen 9.00 out of 12
Air Quality Not available.
Flu Activity Not available.
METAR KSHR 282353Z AUTO 32004KT 5SM HZ CLR 31/06 A3006 RMK AO2 SLP142 T03110056 10328 20294 55004

10-Day Weather Forecast

×

Almanac

Astronomy

Aug. 28, 2015 Rise Set
Actual Time
Civil Twilight
Nautical Twilight
Astronomical Twilight
Moon
Length of Visible Light
Length of Day
Tomorrow will be .
, % of the Moon is Illuminated

Today's Extremes

State Highs State Lows

Community

WunderPhotos

Upload Photos

1,850,548 photos uploaded!

WunderBlogs® & News

Nearby

Air Quality

  Air Quality AQ Index Pollutant
Not available.

Snow Depth

Station Depth Elevation

Earthquake Activity

City Distance Mag. Time & Date
Minimum magnitude displayed is 2.5.

Coastal Water Temperatures

Place Temperature

Stations

Nearby Weather Stations

Station Location Temp. Windchill Dew Point Humidity Wind Precip. Elev Updated Type